Time,TemperatureF,DewpointF,PressureIn,WindDirection,WindDirectionDegrees,WindSpeedMPH,WindSpeedGustMPH,Humidity,HourlyPrecipIn,Conditions,Clouds,dailyrainin,SoftwareType,DateUTC
2013-08-13 00:00:00,65.8,60.2,30.01,SW,225,0.0,0.0,82,0.00,,,1.33,WUHU216HW,2013-08-13 05:00:00,
2013-08-13 00:05:00,65.8,60.2,30.01,SW,225,0.0,0.0,82,0.00,,,1.33,WUHU216HW,2013-08-13 05:05:00,
2013-08-13 00:30:00,65.0,59.7,30.01,SW,225,0.7,0.7,83,0.00,,,0.00,WUHU216HW,2013-08-13 05:30:00,
2013-08-13 00:35:00,65.0,59.7,30.01,SW,225,0.7,0.7,83,0.00,,,0.00,WUHU216HW,2013-08-13 05:35:00,
2013-08-13 00:59:00,64.7,59.8,30.01,SSW,203,0.0,0.0,84,0.00,,,0.00,WUHU216HW,2013-08-13 05:59:00,
2013-08-13 01:00:00,64.7,59.8,30.01,SSW,203,0.0,0.0,84,0.00,,,0.00,WUHU216HW,2013-08-13 06:00:00,
2013-08-13 01:05:00,64.7,59.8,30.01,SSW,203,0.0,0.0,84,0.00,,,0.00,WUHU216HW,2013-08-13 06:05:00,
2013-08-13 01:30:00,64.1,59.2,30.01,SW,225,0.4,0.4,84,0.00,,,0.00,WUHU216HW,2013-08-13 06:30:00,
2013-08-13 01:35:00,64.1,59.2,30.01,SW,225,0.4,0.4,84,0.00,,,0.00,WUHU216HW,2013-08-13 06:35:00,
2013-08-13 01:59:00,63.6,59.0,30.01,SW,225,0.0,0.0,85,0.00,,,0.00,WUHU216HW,2013-08-13 06:59:00,
2013-08-13 02:00:00,63.6,59.0,30.01,SW,225,0.0,0.0,85,0.00,,,0.00,WUHU216HW,2013-08-13 07:00:00,
2013-08-13 02:05:00,63.6,59.0,30.01,SW,225,0.0,0.0,85,0.00,,,0.00,WUHU216HW,2013-08-13 07:05:00,
2013-08-13 02:30:00,63.1,58.8,30.01,SW,225,0.4,0.4,86,0.00,,,0.00,WUHU216HW,2013-08-13 07:30:00,
2013-08-13 02:35:00,63.1,58.8,30.01,SW,225,0.4,0.4,86,0.00,,,0.00,WUHU216HW,2013-08-13 07:35:00,
2013-08-13 02:59:00,62.9,58.7,30.01,SW,225,0.0,0.0,86,0.00,,,0.00,WUHU216HW,2013-08-13 07:59:00,
2013-08-13 03:00:00,62.9,58.7,30.01,SW,225,0.0,0.0,86,0.00,,,0.00,WUHU216HW,2013-08-13 08:00:00,
2013-08-13 03:05:00,62.9,58.7,30.01,SW,225,0.0,0.0,86,0.00,,,0.00,WUHU216HW,2013-08-13 08:05:00,
2013-08-13 03:30:00,62.9,59.0,30.01,SW,225,0.0,0.0,87,0.00,,,0.00,WUHU216HW,2013-08-13 08:30:00,
2013-08-13 03:35:00,62.9,59.0,30.01,SW,225,0.0,0.0,87,0.00,,,0.00,WUHU216HW,2013-08-13 08:35:00,
2013-08-13 03:59:00,62.7,59.1,30.02,SSW,203,0.0,0.0,88,0.00,,,0.00,WUHU216HW,2013-08-13 08:59:00,
2013-08-13 04:00:00,62.7,59.1,30.02,SSW,203,0.0,0.0,88,0.00,,,0.00,WUHU216HW,2013-08-13 09:00:00,
2013-08-13 04:05:00,62.7,59.1,30.02,SSW,203,0.0,0.0,88,0.00,,,0.00,WUHU216HW,2013-08-13 09:05:00,
2013-08-13 04:30:00,62.5,58.9,30.01,SW,225,0.0,0.0,88,0.00,,,0.00,WUHU216HW,2013-08-13 09:30:00,
2013-08-13 04:35:00,62.5,58.9,30.01,SW,225,0.0,0.0,88,0.00,,,0.00,WUHU216HW,2013-08-13 09:35:00,
2013-08-13 05:00:00,62.5,58.9,30.01,SW,225,0.0,0.0,88,0.00,,,0.00,WUHU216HW,2013-08-13 10:00:00,
2013-08-13 05:05:00,62.5,58.9,30.01,SW,225,0.0,0.0,88,0.00,,,0.00,WUHU216HW,2013-08-13 10:05:00,
2013-08-13 05:30:00,62.3,58.7,30.01,South,180,0.0,0.0,88,0.00,,,0.00,WUHU216HW,2013-08-13 10:30:00,
2013-08-13 05:35:00,62.3,58.7,30.01,South,180,0.0,0.0,88,0.00,,,0.00,WUHU216HW,2013-08-13 10:35:00,
2013-08-13 06:00:00,62.2,58.6,30.02,NW,315,0.0,0.0,88,0.00,,,0.00,WUHU216HW,2013-08-13 11:00:00,
2013-08-13 06:05:00,62.2,58.6,30.02,NW,315,0.0,0.0,88,0.00,,,0.00,WUHU216HW,2013-08-13 11:05:00,
2013-08-13 06:30:00,62.2,58.6,30.04,WSW,248,0.0,0.0,88,0.00,,,0.00,WUHU216HW,2013-08-13 11:30:00,
2013-08-13 06:35:00,62.2,58.6,30.04,WSW,248,0.0,0.0,88,0.00,,,0.00,WUHU216HW,2013-08-13 11:35:00,
2013-08-13 07:00:00,62.3,59.0,30.04,WSW,248,0.0,0.0,89,0.00,,,0.00,WUHU216HW,2013-08-13 12:00:00,
2013-08-13 07:05:00,62.3,59.0,30.04,WSW,248,0.0,0.0,89,0.00,,,0.00,WUHU216HW,2013-08-13 12:05:00,
2013-08-13 07:30:00,62.5,59.2,30.05,WSW,248,0.0,0.0,89,0.00,,,0.00,WUHU216HW,2013-08-13 12:30:00,
2013-08-13 07:35:00,62.5,59.2,30.05,WSW,248,0.0,0.0,89,0.00,,,0.00,WUHU216HW,2013-08-13 12:35:00,
2013-08-13 07:59:00,63.6,60.6,30.05,North,0,0.4,0.4,90,0.00,,,0.00,WUHU216HW,2013-08-13 12:59:00,
2013-08-13 08:00:00,63.6,60.6,30.05,North,0,0.4,0.4,90,0.00,,,0.00,WUHU216HW,2013-08-13 13:00:00,
2013-08-13 08:05:00,63.6,60.6,30.05,North,0,0.4,0.4,90,0.00,,,0.00,WUHU216HW,2013-08-13 13:05:00,
2013-08-13 08:30:00,64.9,61.6,30.06,North,0,0.0,0.0,89,0.00,,,0.00,WUHU216HW,2013-08-13 13:30:00,
2013-08-13 08:35:00,64.9,61.6,30.06,North,0,0.0,0.0,89,0.00,,,0.00,WUHU216HW,2013-08-13 13:35:00,
2013-08-13 08:59:00,66.3,62.0,30.08,North,0,0.0,0.0,86,0.00,,,0.00,WUHU216HW,2013-08-13 13:59:00,
2013-08-13 09:00:00,66.3,62.0,30.08,North,0,0.0,0.0,86,0.00,,,0.00,WUHU216HW,2013-08-13 14:00:00,
2013-08-13 09:05:00,66.3,62.0,30.08,North,0,0.0,0.0,86,0.00,,,0.00,WUHU216HW,2013-08-13 14:05:00,
2013-08-13 09:30:00,67.7,62.4,30.08,North,0,0.4,0.4,83,0.00,,,0.00,WUHU216HW,2013-08-13 14:30:00,
2013-08-13 09:35:00,67.7,62.4,30.08,North,0,0.4,0.4,83,0.00,,,0.00,WUHU216HW,2013-08-13 14:35:00,
2013-08-13 09:59:00,69.7,63.7,30.09,NE,45,0.0,0.0,81,0.00,,,0.00,WUHU216HW,2013-08-13 14:59:00,
2013-08-13 10:00:00,69.7,63.7,30.09,NE,45,0.0,0.0,81,0.00,,,0.00,WUHU216HW,2013-08-13 15:00:00,
2013-08-13 10:05:00,69.7,63.7,30.09,NE,45,0.0,0.0,81,0.00,,,0.00,WUHU216HW,2013-08-13 15:05:00,
2013-08-13 10:30:00,71.0,63.5,30.09,NE,45,0.7,0.7,77,0.00,,,0.00,WUHU216HW,2013-08-13 15:30:00,
2013-08-13 10:35:00,71.0,63.5,30.09,NE,45,0.7,0.7,77,0.00,,,0.00,WUHU216HW,2013-08-13 15:35:00,
2013-08-13 10:59:00,72.1,63.5,30.10,NE,45,3.4,3.4,74,0.00,,,0.00,WUHU216HW,2013-08-13 15:59:00,
2013-08-13 11:00:00,72.1,63.5,30.10,NE,45,3.4,3.4,74,0.00,,,0.00,WUHU216HW,2013-08-13 16:00:00,
2013-08-13 11:05:00,72.1,63.5,30.10,NE,45,3.4,3.4,74,0.00,,,0.00,WUHU216HW,2013-08-13 16:05:00,
2013-08-13 11:30:00,73.3,62.7,30.10,ENE,68,3.1,3.1,69,0.00,,,0.00,WUHU216HW,2013-08-13 16:30:00,
2013-08-13 11:35:00,73.3,62.7,30.10,ENE,68,3.1,3.1,69,0.00,,,0.00,WUHU216HW,2013-08-13 16:35:00,
2013-08-13 11:59:00,74.6,62.7,30.10,ESE,113,2.2,2.2,66,0.00,,,0.00,WUHU216HW,2013-08-13 16:59:00,
2013-08-13 12:00:00,74.6,62.7,30.10,ESE,113,2.2,2.2,66,0.00,,,0.00,WUHU216HW,2013-08-13 17:00:00,
2013-08-13 12:05:00,74.6,62.7,30.10,ESE,113,2.2,2.2,66,0.00,,,0.00,WUHU216HW,2013-08-13 17:05:00,
2013-08-13 12:30:00,76.2,62.9,30.09,ENE,68,2.9,2.9,63,0.00,,,0.00,WUHU216HW,2013-08-13 17:30:00,
2013-08-13 12:35:00,76.2,62.9,30.09,ENE,68,2.9,2.9,63,0.00,,,0.00,WUHU216HW,2013-08-13 17:35:00,
2013-08-13 12:59:00,77.1,62.4,30.09,ENE,68,0.9,0.9,60,0.00,,,0.00,WUHU216HW,2013-08-13 17:59:00,
2013-08-13 13:00:00,77.1,62.4,30.09,ENE,68,0.9,0.9,60,0.00,,,0.00,WUHU216HW,2013-08-13 18:00:00,
2013-08-13 13:05:00,77.1,62.4,30.09,ENE,68,0.9,0.9,60,0.00,,,0.00,WUHU216HW,2013-08-13 18:05:00,
2013-08-13 13:30:00,77.8,61.5,30.08,SE,135,4.0,4.0,57,0.00,,,0.00,WUHU216HW,2013-08-13 18:30:00,
2013-08-13 13:35:00,77.8,61.5,30.08,SE,135,4.0,4.0,57,0.00,,,0.00,WUHU216HW,2013-08-13 18:35:00,
2013-08-13 13:59:00,79.1,61.7,30.08,East,90,2.9,2.9,55,0.00,,,0.00,WUHU216HW,2013-08-13 18:59:00,
2013-08-13 14:00:00,79.1,61.7,30.08,East,90,2.9,2.9,55,0.00,,,0.00,WUHU216HW,2013-08-13 19:00:00,
2013-08-13 14:05:00,79.1,61.7,30.08,East,90,2.9,2.9,55,0.00,,,0.00,WUHU216HW,2013-08-13 19:05:00,
2013-08-13 14:30:00,80.0,61.5,30.07,ENE,68,2.5,2.5,53,0.00,,,0.00,WUHU216HW,2013-08-13 19:30:00,
2013-08-13 14:35:00,80.0,61.5,30.07,ENE,68,2.5,2.5,53,0.00,,,0.00,WUHU216HW,2013-08-13 19:35:00,
2013-08-13 14:59:00,81.1,62.5,30.07,NE,45,3.6,3.6,53,0.00,,,0.00,WUHU216HW,2013-08-13 19:59:00,
2013-08-13 15:00:00,81.1,62.5,30.07,NE,45,3.6,3.6,53,0.00,,,0.00,WUHU216HW,2013-08-13 20:00:00,
2013-08-13 15:05:00,81.1,62.5,30.07,NE,45,3.6,3.6,53,0.00,,,0.00,WUHU216HW,2013-08-13 20:05:00,
2013-08-13 15:30:00,80.9,61.2,30.06,ESE,113,4.0,4.0,51,0.00,,,0.00,WUHU216HW,2013-08-13 20:30:00,
2013-08-13 15:35:00,80.9,61.2,30.06,ESE,113,4.0,4.0,51,0.00,,,0.00,WUHU216HW,2013-08-13 20:35:00,
2013-08-13 15:59:00,81.4,61.7,30.06,NNW,338,2.5,2.5,51,0.00,,,0.00,WUHU216HW,2013-08-13 20:59:00,
2013-08-13 16:00:00,81.4,61.7,30.06,NNW,338,2.5,2.5,51,0.00,,,0.00,WUHU216HW,2013-08-13 21:00:00,
2013-08-13 16:05:00,81.4,61.7,30.06,NNW,338,2.5,2.5,51,0.00,,,0.00,WUHU216HW,2013-08-13 21:05:00,
2013-08-13 16:30:00,81.8,62.0,30.05,SSE,158,1.1,1.1,51,0.00,,,0.00,WUHU216HW,2013-08-13 21:30:00,
2013-08-13 16:35:00,81.8,62.0,30.05,SSE,158,1.1,1.1,51,0.00,,,0.00,WUHU216HW,2013-08-13 21:35:00,
2013-08-13 16:59:00,81.8,61.5,30.06,SSE,158,2.2,2.2,50,0.00,,,0.00,WUHU216HW,2013-08-13 21:59:00,
2013-08-13 17:00:00,81.8,61.5,30.06,SSE,158,2.2,2.2,50,0.00,,,0.00,WUHU216HW,2013-08-13 22:00:00,
2013-08-13 17:05:00,81.8,61.5,30.06,SSE,158,2.2,2.2,50,0.00,,,0.00,WUHU216HW,2013-08-13 22:05:00,
2013-08-13 17:30:00,81.1,60.2,30.05,SSW,203,0.9,0.9,49,0.00,,,0.00,WUHU216HW,2013-08-13 22:30:00,
2013-08-13 17:35:00,81.1,60.2,30.05,SSW,203,0.9,0.9,49,0.00,,,0.00,WUHU216HW,2013-08-13 22:35:00,
2013-08-13 17:59:00,80.9,60.0,30.04,East,90,2.2,2.2,49,0.00,,,0.00,WUHU216HW,2013-08-13 22:59:00,
2013-08-13 18:00:00,80.9,60.0,30.04,East,90,2.2,2.2,49,0.00,,,0.00,WUHU216HW,2013-08-13 23:00:00,
2013-08-13 18:05:00,80.9,60.0,30.04,East,90,2.2,2.2,49,0.00,,,0.00,WUHU216HW,2013-08-13 23:05:00,
2013-08-13 18:29:00,80.0,60.4,30.04,NE,45,0.4,0.4,51,0.00,,,0.00,WUHU216HW,2013-08-13 23:29:00,
2013-08-13 18:30:00,80.0,60.4,30.04,NE,45,0.4,0.4,51,0.00,,,0.00,WUHU216HW,2013-08-13 23:30:00,
2013-08-13 18:35:00,80.0,60.4,30.04,NE,45,0.4,0.4,51,0.00,,,0.00,WUHU216HW,2013-08-13 23:35:00,
2013-08-13 19:00:00,78.4,62.1,30.04,WNW,293,0.0,0.0,57,0.00,,,0.00,WUHU216HW,2013-08-14 00:00:00,
2013-08-13 19:05:00,78.4,62.1,30.04,WNW,293,0.0,0.0,57,0.00,,,0.00,WUHU216HW,2013-08-14 00:05:00,
2013-08-13 19:30:00,75.5,63.1,30.04,SW,225,0.0,0.0,65,0.00,,,0.00,WUHU216HW,2013-08-14 00:30:00,
2013-08-13 19:35:00,75.5,63.1,30.04,SW,225,0.0,0.0,65,0.00,,,0.00,WUHU216HW,2013-08-14 00:35:00,
2013-08-13 20:00:00,73.0,62.0,30.04,SSW,203,0.0,0.0,68,0.00,,,0.00,WUHU216HW,2013-08-14 01:00:00,
2013-08-13 20:05:00,73.0,62.0,30.04,SSW,203,0.0,0.0,68,0.00,,,0.00,WUHU216HW,2013-08-14 01:05:00,
2013-08-13 20:30:00,70.6,61.3,30.04,SW,225,0.0,0.0,72,0.00,,,0.00,WUHU216HW,2013-08-14 01:30:00,
2013-08-13 20:35:00,70.6,61.3,30.04,SW,225,0.0,0.0,72,0.00,,,0.00,WUHU216HW,2013-08-14 01:35:00,
2013-08-13 21:00:00,68.5,60.0,30.06,SSW,203,0.4,0.4,74,0.00,,,0.00,WUHU216HW,2013-08-14 02:00:00,
2013-08-13 21:05:00,68.5,60.0,30.06,SSW,203,0.4,0.4,74,0.00,,,0.00,WUHU216HW,2013-08-14 02:05:00,
2013-08-13 21:30:00,67.2,59.1,30.07,WSW,248,0.4,0.4,75,0.00,,,0.00,WUHU216HW,2013-08-14 02:30:00,
2013-08-13 21:35:00,67.2,59.1,30.07,WSW,248,0.4,0.4,75,0.00,,,0.00,WUHU216HW,2013-08-14 02:35:00,
2013-08-13 21:59:00,66.1,58.8,30.08,SW,225,0.0,0.0,77,0.00,,,0.00,WUHU216HW,2013-08-14 02:59:00,
2013-08-13 22:00:00,66.1,58.8,30.08,SW,225,0.0,0.0,77,0.00,,,0.00,WUHU216HW,2013-08-14 03:00:00,
2013-08-13 22:05:00,66.1,58.8,30.08,SW,225,0.0,0.0,77,0.00,,,0.00,WUHU216HW,2013-08-14 03:05:00,
2013-08-13 22:30:00,65.0,58.4,30.09,SW,225,0.0,0.0,79,0.00,,,0.00,WUHU216HW,2013-08-14 03:30:00,
2013-08-13 22:35:00,65.0,58.4,30.09,SW,225,0.0,0.0,79,0.00,,,0.00,WUHU216HW,2013-08-14 03:35:00,
2013-08-13 22:59:00,64.1,57.9,30.09,WSW,248,1.6,1.6,80,0.00,,,0.00,WUHU216HW,2013-08-14 03:59:00,
2013-08-13 23:00:00,64.1,57.9,30.09,WSW,248,1.6,1.6,80,0.00,,,0.00,WUHU216HW,2013-08-14 04:00:00,
2013-08-13 23:01:00,64.1,57.9,30.09,WSW,248,1.6,1.6,80,0.00,,,0.00,WUHU216HW,2013-08-14 04:01:00,
2013-08-13 23:06:00,64.1,57.9,30.09,WSW,248,1.6,1.6,80,0.00,,,0.00,WUHU216HW,2013-08-14 04:06:00,
2013-08-13 23:30:00,63.1,57.2,30.09,SW,225,0.0,0.0,81,0.00,,,0.00,WUHU216HW,2013-08-14 04:30:00,
2013-08-13 23:35:00,63.1,57.2,30.09,SW,225,0.0,0.0,81,0.00,,,0.00,WUHU216HW,2013-08-14 04:35:00,
2013-08-13 23:59:00,62.3,56.8,30.10,SW,225,0.0,0.0,82,0.00,,,0.00,WUHU216HW,2013-08-14 04:59:00,